Regional Weather Roundup
Issued by NWS

Home | Current Version | Previous Version | Text Only | Print | Product List | Glossary On
Versions: 1 2 3 4 5 6 7 8 9 10 11 12 13 14 15 16 17 18 19 20 21 22 23 24 25 26 27 28 29 30 31 32 33 34 35 36 37 38 39 40 41 42 43 44 45 46 47 48 49 50
000
ASUS44 KFWD 261715
RWRTX
NORTH TEXAS HOURLY WEATHER ROUNDUP
NATIONAL WEATHER SERVICE FORT WORTH TX
1200 PM CDT SUN APR 26 2015

NOTE: "FAIR" INDICATES FEW OR NO CLOUDS BELOW 12,000 FEET WITH NO
SIGNIFICANT WEATHER AND/OR OBSTRUCTIONS TO VISIBILITY.

TXZ118-119-261800-
DALLAS/FORT WORTH METROPLEX

CITY           SKY/WX    TMP DP  RH WIND       PRES   REMARKS
DFW AIRPORT    MOSUNNY   80  64  58 S5        29.68F
DALLAS LOVE    SUNNY     82  63  52 CALM      29.68F
FTW MEACHAM    SUNNY     82  63  52 VRB3      29.67F
DAL-EXECUTIVE  SUNNY     82  66  58 SE6       29.69F
FTW-ALLIANCE   MOSUNNY   82  64  54 CALM      29.67F
FTW-NAS-JRB    PTSUNNY   83  65  54 S7        29.69F
FTW-SPINKS     SUNNY     82  64  54 CALM      29.70F
ARLINGTON      SUNNY     82  64  54 SE8       29.69F
GRAND PRAIRIE  SUNNY     81  66  61 SE3       29.70F
ADDISON        SUNNY     81  63  54 S6        29.69F
MESQUITE       MOSUNNY   79  68  69 SW5       29.71F
LANCASTER      SUNNY     80  67  64 S5        29.71F
$$

TXZ091>094-102>105-117-120-121-131>134-261800-
NORTH CENTRAL TEXAS

CITY           SKY/WX    TMP DP  RH WIND       PRES   REMARKS
SHRMAN/DENISON SUNNY     80  62  54 CALM      29.72F
GAINESVILLE    SUNNY     78  59  52 CALM      29.72F
BOWIE          SUNNY     80  58  46 CALM      29.70F
BRIDGEPORT     SUNNY     82  64  53 W3        29.69F
DECATUR        SUNNY     80  59  48 CALM      29.69F
DENTON         SUNNY     80  62  54 CALM      29.69F
MCKINNEY       SUNNY     81  63  54 S5        29.70F
GREENVILLE     SUNNY     81  64  57 S5        29.72F
ROCKWALL       SUNNY     80  68  66 W3        29.70F
TERRELL        SUNNY     84  69  60 VRB5      29.71F
WAXAHACHIE     SUNNY     80  69  69 CALM      29.71S
CLEBURNE       MOSUNNY   75  72  88 S12       29.73R
GRANBURY         N/A     78  64  62 SE7       29.70R
$$

TXZ083>090-098>101-113>116-127>130-139>142-154-155-261800-
WESTERN NORTH TEXAS

CITY           SKY/WX    TMP DP  RH WIND       PRES   REMARKS
WICHITA FALLS  MOSUNNY   76  55  48 E6        29.68F
WF-KICKAPOO    SUNNY     78  53  41 CALM      29.70F
VERNON         SUNNY     75  40  27 NE3       29.69S
ABILENE        PTSUNNY   74  63  68 VRB6      29.70F
ABILENE-DYESS  PTSUNNY   77  65  66 S7        29.68F
BRECKENRIDGE   CLOUDY    78  56  47 E3        29.68F HAZE
GRAHAM         MOSUNNY   77  63  61 S3        29.69R
MINERAL WELLS  MOSUNNY   76  62  62 S5        29.69R
STEPHENVILLE   CLOUDY    76  65  67 S6        29.75R
COMANCHE       PTSUNNY   79  68  68 S15       29.71R
BROWNWOOD      CLOUDY    77  64  65 W6        29.72R
COLEMAN        CLOUDY    75  67  76 SE3       29.70F
BRADY          SUNNY     84  57  39 S20       29.69F
$$

TXZ143>147-156>162-174-175-261800-
CENTRAL TEXAS

CITY           SKY/WX    TMP DP  RH WIND       PRES   REMARKS
WACO           PTSUNNY   74  68  81 SE13      29.72F
WACO-TSTC      CLOUDY    73  68  83 SE6       29.73F
WACO-MCGREGOR  PTSUNNY   75  66  73 SE9       29.73F
HILLSBORO      MOSUNNY   79  69  72 S16       29.73R
CORSICANA      MOSUNNY   81  71  71 S13       29.75R
MEXIA          PTSUNNY   73  69  88 S10       29.75R
HEARNE         CLOUDY    74  69  83 E9        29.73F
CAMERON        CLOUDY    78  69  74 SE5       29.70S
TEMPLE         PTSUNNY   75  66  73 SE8       29.71F
KILLEEN        MOSUNNY   80  67  65 SE12      29.69F
KILLEEN-SKYLRK PTSUNNY   79  66  65 SE10      29.71F
FORT HOOD      PTSUNNY   78  69  72 SE9       29.69F
GATESVILLE     PTSUNNY   75  70  83 SE3       29.73F
HAMILTON       PTSUNNY   76  67  72 S12G22    29.73S
LAMPASAS       PTSUNNY   80  68  67 SE6       29.71S
$$

TXZ095>097-106>112-122>126-135>138-148>153-164>167-261800-
EAST TEXAS

CITY           SKY/WX    TMP DP  RH WIND       PRES   REMARKS
PARIS          SUNNY     79  64  61 MISG      29.74F
SULPHUR SPRNGS SUNNY     78  68  69 S5        29.75F
MOUNT PLEASANT SUNNY     81  67  63 CALM      29.75F
GILMER         MOSUNNY   78  67  69 CALM      29.74F
TYLER          SUNNY     81  65  58 S7        29.74S
LONGVIEW       SUNNY     81  67  62 VRB3      29.73F
MARSHALL       MOSUNNY   82  70  66 CALM      29.77F
ATHENS         SUNNY     79  70  73 S9        29.74R
PALESTINE      MOSUNNY   78  69  73 S7        29.77S
JACKSONVILLE   MOSUNNY   77  68  73 S8        29.78R
HENDERSON      MOSUNNY   77  67  70 CALM      29.76F
NACOGDOCHES    PTSUNNY   79  66  65 SE6       29.76F
LUFKIN         MOSUNNY   72  67  84 SE6       29.77S
$$

SUPPLEMENTAL OBSERVATIONS (CENTRAL)

CITY           SKY/WX    TMP DP  RH WIND       PRES   REMARKS
LAKE TEXOMA      N/A     77  59  53 E5          N/A
CADDO GRASSLND   N/A     81  64  57 SE5         N/A
PAT MAYSE LAKE   N/A     77  66  69 SE7         N/A
GREENVILLE       N/A     81  66  61 S6          N/A
CEDAR HILL       N/A     82  64  54 S5          N/A
LAKE LIMESTONE   N/A     73  66  78 SE9G17      N/A
MCGREGOR         N/A     77  70  78 S9          N/A
TEMPLE           N/A     77  68  73 SE7         N/A
$$

SUPPLEMENTAL OBSERVATIONS (WEST)

CITY           SKY/WX    TMP DP  RH WIND       PRES   REMARKS
MILLERS CREEK    N/A     81  57  44 S7          N/A
POSSUM KINGDOM   N/A     75  57  53 SW5         N/A
LBJ GRASSLAND    N/A     82  59  44 NW5         N/A
GRANBURY         N/A     79  63  57 SE7         N/A
COMANCHE         N/A     79  64  61 S10G18      N/A
HAMBY            N/A     77  64  65 S13         N/A
IVIE RESERVOIR   N/A     84  59  42 S17G25      N/A
COLORADO BEND    N/A     82  68  61 SW10        N/A
$$

SUPPLEMENTAL OBSERVATIONS (EAST)

CITY           SKY/WX    TMP DP  RH WIND       PRES   REMARKS
CLARKSVILLE      N/A     81  72  74 SE6         N/A
TEXARKANA        N/A     82  61  47 S2          N/A
LINDEN           N/A     84  70  61 W1          N/A
CADDO LAKE       N/A     86  66  51 S5          N/A
GILMER           N/A     81  66  61 S3          N/A
HENDERSON        N/A     81  68  65 SE5         N/A
LUFKIN           N/A     79  66  65 MISG        N/A
N SABINE NF      N/A     88  70  55 MISG        N/A  HX  92
S SABINE NF      N/A     79  70  73 CALM        N/A
$$

SUPPLEMENTAL OBSERVATIONS ARE A COLLECTION OF AUTOMATED INSTRUMENTS
THAT ARE MAINTAINED BY A VARIETY OF FEDERAL AND STATE AGENCIES.
CERTAIN ELEMENTS...SUCH AS HUMIDITY VALUES AND SUSTAINED WIND
SPEEDS...MAY BE APPROXIMATED.




USA.gov is the U.S. government's official web portal to all federal, state and local government web resources and services.